Regional Weather Roundup
Issued by NWS Newport/Morehead, NC

Current Version | Previous Version | Text Only | Print | Product List | Glossary On
Versions: 1 2 3 4 5 6 7 8 9 10 11 12 13 14 15 16 17 18 19 20 21 22 23 24 25 26 27 28 29 30 31 32 33 34 35 36 37 38 39 40 41 42 43 44 45 46 47 48 49 50
000
ASUS42 KMHX 190814
RWRMHX
WEATHER ROUNDUP FOR EASTERN NORTH CAROLINA
NATIONAL WEATHER SERVICE NEWPORT/MOREHEAD CITY NC
300 AM EST FRI JAN 19 2018

NOTE: "FAIR" INDICATES FEW OR NO CLOUDS BELOW 12,000 FEET
WITH NO SIGNIFICANT WEATHER AND/OR OBSTRUCTIONS TO VISIBILITY

NCZ015>017-031-032-045>047-102-103-190900-
NORTH COAST

CITY           SKY/WX    TMP DP  RH WIND       PRES   REMARKS
EDENTON        FAIR      32  24  71 CALM      30.19F
ELIZABETH CITY FAIR      26  22  84 SW6       30.18F
KITTY HAWK     FAIR      31  25  76 MISG      30.17S
MANTEO         FAIR      30  23  75 W3        30.20S

$$

NCZ045>047-081-094-103-104-190900-
CENTRAL COAST

CITY           SKY/WX    TMP DP  RH WIND       PRES   REMARKS
FRISCO         FAIR      35  28  75 W6        30.21F

$$

NCZ095-097-098-100-101-190900-
SOUTHERN COAST

CITY           SKY/WX    TMP DP  RH WIND       PRES   REMARKS
BEAUFORT       FAIR      33  22  63 NW10      30.21F
CEDAR ISLAND   NOT AVBL
JACKSONVILLE   FAIR      30  21  69 W7        30.22F
PINEY ISLAND   NOT AVBL
WILMINGTON     FAIR      30  19  63 W6        30.25F


$$

NCZ011>013-027>030-043-044-078>080-089-090>093-098-190900-
COASTAL PLAIN

CITY           SKY/WX    TMP DP  RH WIND       PRES   REMARKS
AHOSKIE        FAIR      24  20  85 CALM      30.18F
CLINTON        FAIR      26  22  84 CALM      30.25S
ELIZABETHTOWN  NOT AVBL
GOLDSBORO      FAIR      30  21  71 SW5       30.20F
GREENVILLE     FAIR      28  23  80 CALM      30.21S
HAVELOCK       NOT AVBL
KENANSVILLE    FAIR      32  19  59 W3        30.23F
KINSTON        FAIR      32  23  69 SW6       30.22S
NEW BERN       FAIR      28  20  71 CALM      30.22F
RICHLANDS      FAIR      30  21  69 SW6       30.23F
ROCKY MOUNT    NOT AVBL
WASHINGTON     FAIR      28  22  77 CALM      30.21F
WHITEVILLE     FAIR      29  19  67 CALM      30.25F

$$

AMZ130-135-150-152-154-156-158-170-250-252-270-ANZ085-086-088-633-658-670-190900-
MARINE OBSERVATIONS

STATION/POSITION TIME  TEMP    WIND        PRES    WAVE   SWELL
                       AIR SEA DIR/SP/G            HT/PER HT/PER
                 (UTC) (F)     (DEG/KT/KT) (MB)    (FT/S) (FT/S)
CHESAPEAKE LIGHT NOT AVBL
64 E VA BEACH    0750   44 60  290/ 17/ 21 1021.0    5/ 5   2/10
DUCK             0736   31 38  260/ 12/ 14 1021.4
2 E DUCK         0800      39                N/A     2/11   2/11
OREGON INLET     0736   31 35  270/  6/  9 1022.5
13E OREGON INLT  0748      41                N/A     5/10   5/10
HATTERAS CG      0736   36 40  280/ 12/ 15 1022.6
DIAMOND BUOY     0800   42     300/ 16/ 19 1023.3
CAPE LOOKOUT     0800          310/ 11/ 14 1023.3
BEAUFORT LAB     0736   34 44  330/  5/  7 1023.1
30 SE NEW RVR IN 0708   45 57  330/ 14/ 19 1023.9
30 SE NEW RVR IN 0800      57                N/A     4/11   2/11
27 SE WRIGHTSVLE 0708   45 58  290/ 16/ 27 1024.3
5 SE WRIGHTSVLE  0708   40 47  290/ 10/ 16 1023.9
225 S CAPE HAT   0750   56 70  330/ 10/ 14 1023.7    9/11  10/11
41 SE CHARLESTON 0800   50 69  290/ 14/ 17 1025.5

$$



USA.gov is the U.S. government's official web portal to all federal, state and local government web resources and services.